Regional Weather Roundup
Issued by NWS Upton, NY

Current Version | Previous Version | Graphics & Text | Print | Product List | Glossary Off
Versions: 1 2 3 4 5 6 7 8 9 10 11 12 13 14 15 16 17 18 19 20 21 22 23 24 25 26 27 28 29 30 31 32 33 34 35 36 37 38 39 40 41 42 43 44 45 46 47 48 49 50

000
ASUS41 KOKX 282205
RWROKX

REGIONAL WEATHER ROUNDUP
NATIONAL WEATHER SERVICE NEW YORK NY
500 PM EST WED JAN 28 2015

NOTE: "FAIR" INDICATES FEW OR NO CLOUDS BELOW 12,000 FEET WITH NO
SIGNIFICANT WEATHER AND/OR OBSTRUCTIONS TO VISIBILITY.

NYZ071-072-176-178-NJZ106-104-282300-
NEW YORK CITY METRO AREA


CITY           SKY/WX    TMP DP  RH WIND       PRES   REMARKS
CENTRAL PARK   CLEAR     33   6  32 VRB6      30.14R WCI  28
LAGUARDIA APRT CLEAR     32  11  41 N9        30.13R WCI  24
KENNEDY INTL   CLEAR     32   9  38 N13       30.14R WCI  22
NEWARK/LIBERTY CLEAR     32   6  33 NW12G23   30.14R WCI  23
BRNX BOT. GARD   N/A    N/A N/A N/A N6        30.15R
TETERBORO      CLEAR     33   2  26 NW9       30.13R WCI  25
$$

NYZ177-179-078>081-282300-
LONG ISLAND NEW YORK

CITY           SKY/WX    TMP DP  RH WIND       PRES   REMARKS
FARMINGDALE    CLEAR     31   9  39 N12       30.11R WCI  22
ISLIP          CLEAR     27  11  51 N13G26    30.09R WCI  16
SHIRLEY        CLEAR     27  11  51 N12       30.10R WCI  17
WESTHAMPTON    CLEAR     27  11  51 NW10      30.10R WCI  17
MONTAUK POINT    N/A     28  11  48 NW13      30.08R WCI  17
$$

NYZ052-065-067-282300-
HUDSON VALLEY

CITY           SKY/WX    TMP DP  RH WIND       PRES   REMARKS
WHITE PLAINS   CLEAR     28   6  39 NW18      30.10R WCI  15
NEWBURGH       CLEAR     28   9  43 N9        30.13R WCI  20
MONTGOMERY     CLEAR     26   5  40 N5        30.12R WCI  20
POUGHKEEPSIE   CLEAR     27   5  39 NW7       30.14R WCI  19
ALBANY         CLEAR     21  -1  38 N8        30.18R WCI  11
$$

NJZ001-105-106-008-010-013-015-019>022-104-282300-
NEW JERSEY

CITY           SKY/WX    TMP DP  RH WIND       PRES   REMARKS
NEWARK/LIBERTY CLEAR     32   6  33 NW12G23   30.14R WCI  23
TETERBORO      CLEAR     33   2  26 NW9       30.13R WCI  25
CALDWELL       CLEAR     31   1  28 VRB7      30.15R WCI  24
MORRISTOWN     CLEAR     30   5  34 NW10G16   30.15R WCI  21
SOMERVILLE     CLEAR     32   2  27 NW10      30.15R WCI  24
SUSSEX         CLEAR     30  -1  26 N6        30.13R WCI  24
ANDOVER          N/A     28   0  29 VRB5G21   30.14R WCI  23
TRENTON        CLEAR     32   4  30 NW8       30.15R WCI  25
MILLVILLE      CLEAR     33   3  28 NW9       30.18R WCI  25
ATLANTIC CITY  CLEAR     31   6  35 NW15      30.16R WCI  20
WRIGHTSTOWN    CLEAR     30   7  37 W12       30.14R WCI  21
TOMS RIVER     CLEAR     30  10  43 NW10      30.15R WCI  21
BELMAR         CLEAR     32   7  34 NW14      30.13R WCI  22
$$

PAZ047>061-062-071-282300-
EASTERN PENNSYLVANIA

CITY           SKY/WX    TMP DP  RH WIND       PRES   REMARKS
PHILADELPHIA   CLEAR     34   1  24 NW9       30.20R WCI  27
ALLENTOWN      CLEAR     29   5  36 NW14      30.18R WCI  18
SCRANTON       CLEAR     27   2  34 N10G22    30.17R WCI  17
$$

CTZ002-004>006-009-010-012-RIZ004-006-007-MAZ004-011-015-282300-
SOUTHERN NEW ENGLAND
 IN CT

CITY           SKY/WX    TMP DP  RH WIND       PRES   REMARKS
BRADLEY INTL   PTCLDY    27   4  37 N14G21    30.09R WCI  16
HARTFORD       CLEAR     27   8  44 NW10G23   30.10R WCI  17
DANBURY        CLEAR     26   3  37 N8        30.12R WCI  18
WTRBRY/OXFORD  CLEAR     23   3  42 N14G21    30.08R WCI  11
BRIDGEPORT     CLEAR     28   8  43 N18G24    30.10R WCI  15
MERIDEN        CLEAR     26   7  44 N13G28    30.10R WCI  15
NEW HAVEN      CLEAR     27   8  44 NW14G23   30.09R WCI  16
CHESTER        FAIR      27  12  54 NW10      30.06R WCI  17
GROTON         CLEAR     24  10  55 N7        30.07R WCI  16
WILLIMANTIC    CLEAR     25   8  48 NW8       30.07R WCI  16

 IN RI

CITY           SKY/WX    TMP DP  RH WIND       PRES   REMARKS
PROVIDENCE     PTCLDY    24   8  50 N5        30.05R WCI  18
BLOCK ISLAND   CLEAR     25   9  50 N9G16     30.04R WCI  15
WESTERLY       CLEAR     25   8  48 CALM      30.07R

 IN MA

CITY           SKY/WX    TMP DP  RH WIND       PRES   REMARKS
BOSTON         PTCLDY    23   9  55 NW13      30.06R WCI  11
WORCESTER      CLEAR     20   7  57 NW12      30.00R WCI   8
WESTFIELD      CLEAR     25   4  40 NW15      30.10R WCI  13
PROVINCETOWN   CLOUDY    27  12  54 NW15G21   30.03R WCI  15
NANTUCKET      CLOUDY    24  15  68 N13       30.03R WCI  12
$$

ANZ330-335-338-340-345-350-353-355-282300-
COASTAL MARINE OBSERVATIONS


STATION/POSITION TIME  SKY/WX   TEMP    WIND        PRES    VSBY  WAVE
                                AIR SEA DIR/SP/G                  HT/PER
                 (UTC)          (F)     (DEG/KT/KT) (MB)    (MI)  (FT/S)
NY HARB ENTRANCE 2100            33 40  320/ 17/ 19 1018.5          3/12
4S FIRE IS       2200               38                N/A           3/12
20S FIRE ISLAND  2100               42              1018.3          4/ 5
23SW MTP         2200                                 N/A           4/11
HUDSON CANYON    NOT AVBL
EXECUTION ROCKS  2200            33 34  330/ 10/ 14   N/A
WESTERN LI SOUND 2200            32     350/ 14/ 19   N/A           1/ 3
CENTRAL LI SOUND 2100            30 35  340/ 17/ 21   N/A           1/ 3
EASTERN LI SOUND NOT AVBL
ROBBINS REEF     2200            33     330/ 13/ 19 1019.2
$$


>>>>>>>>>>>>>>>>>>>>>>>>>>>> KEY <<<<<<<<<<<<<<<<<<<<<<<<<<<
>                                                          <
>     SKY/WX - SKY CONDITION/PRESENT WEATHER               <
>     TMP    - TEMPERATURE IN FAHRENHEIT                   <
>     DP     - DEWPOINT IN FAHRENHEIT                      <
>     RH     - RELATIVE HUMIDITY IN PERCENT                <
>     WIND   - DIRECTION AND SPEED IN MPH                  <
>     PRES   - MEAN SEA LEVEL PRESSURE IN INCHES OF HG     <
>     WCI    - WIND CHILL INDEX                            <
>     VSB    - VISIBILITY IN MILES                         <
>     HX     - HEAT INDEX                                  <
>     TC     - TEMPERATURE IN CELSIUS                      <
>     VRB    - VARIABLE WIND DIRECTION                     <
>                                                          <
>>>>>>>>>>>>>>>>>>>>>>>>>>>> KEY <<<<<<<<<<<<<<<<<<<<<<<<<<<





USA.gov is the U.S. government's official web portal to all federal, state and local government web resources and services.